Orbital Elements at Epoch 2459000.5 (2020-May-31.0) TDB
Reference: JPL 8 (heliocentric ecliptic J2000)
Element | Value | Uncertainty (1-sigma) | Units |
e | .1566199136396853 | 8.4236e-08 | |
a | 2.422006371593758 | 2.2838e-08 | au |
q | 2.042671942839976 | 2.1379e-07 | au |
i | 1.740011610096704 | 8.5559e-06 | deg |
node | 137.5671554773517 | 0.00023492 | deg |
peri | 312.4991998213247 | 0.0002373 | deg |
M | 344.0903890658495 | 3.2621e-05 | deg |
tp | 2459061.344091009688 (2020-Jul-30.84409101) | 0.00012521 | TDB |
period | 1376.769856544411 3.77 | 1.9473e-05 5.331e-08 | d yr |
n | .2614816109524456 | 3.6984e-09 | deg/d |
Q | 2.80134080034754 | 2.6415e-08 | au |
|
| | Orbit Determination Parameters
Additional Information
|